{"data":{"norad_id":64022,"intl_designator":"2025-102A","name":"STARLINK-34051","alt_names":[],"object_type":"PAYLOAD","status":"ACTIVE","operator":null,"country":"US","launch_date":"2025-05-16","launch_site_code":"AFWTR","launch_vehicle":null,"mission":null,"orbit_class":"UNKNOWN","rcs_meters":null,"size_class":null,"mass_kg":null,"dimensions":null,"purposes":["comms"],"wikipedia_slug":null,"has_3d_model":false,"image_url":null,"decayed_at":null,"tle_current":{"epoch":"2026-05-24T19:20:29.010912Z","epoch_age_seconds":101941,"freshness":"FRESH","line1":"1 64022U 25102A   26144.80589133  .00001242  00000+0  11188-3 0  9998","line2":"2 64022  70.0000 282.5408 0003357 270.4774  89.6000 14.98328054 57358","mean_motion":14.98328054,"eccentricity":0.0003357,"inclination_deg":70,"raan_deg":282.5408,"arg_perigee_deg":270.4774,"mean_anomaly_deg":89.6,"bstar":0.00011188,"rev_number":5735,"period_min":96.107123947637,"perigee_km":569.72872702172,"apogee_km":574.39509056909,"semimajor_km":6950.1989087954,"source":"CELESTRAK","updated_at":"2026-05-25T13:38:20.224020Z"}}}